Voltar ao catálogo

COSMOS 2602

AtivoMilitarPO
NORAD 67676·PAYLOAD·🇷🇺 Russia

Lançado Feb 5, 2026 de Plesetsk Cosmodrome

Loading…

Próximas Passagens (próximas 24 horas)

TLE

AtualizadoSource: Space-Track

Época: Sep 13, 2026, 17:04 UTC

1 67676U 26023C   26256.71123598  .00005111  00000-0  19921-3 0  9995
2 67676  96.6188 308.2552 0017266 164.6059 195.5711 15.26186003 33502

Acompanhe COSMOS 2602 em tempo real com AllMySat

Download on the App Store